Location: Washington
(38.8950°N, 77.0370°W)
Time: 16:58:58
(UTC-05:00)

Tiangong 1 - Visible Passes

Search period start: 24 February 2018 00:00
Search period end: 06 March 2018 00:00
Orbit: 245 x 266 km, 42.8° (Epoch: 24 February)

Date Brightness Start Highest point End Pass type
(mag) Time Alt. Az. Time Alt. Az. Time Alt. Az.
28 Feb 2.3 19:05:08 10° SSW 19:06:23 17° SSE 19:06:23 17° SSE visible
01 Mar 1.4 18:56:27 10° SSW 18:58:27 27° SSE 18:58:56 24° SE visible
02 Mar 0.7 18:47:43 10° SW 18:49:53 44° SSE 18:51:07 20° E visible
03 Mar 0.1 18:38:48 10° WSW 18:41:03 72° SSE 18:42:56 13° ENE visible
04 Mar 0.3 18:29:42 10° WSW 18:31:57 73° NNW 18:34:12 10° ENE visible
05 Mar 3.7 19:54:33 10° WNW 19:54:58 13° NW 19:54:58 13° NW visible
